Wind_Speed
37 34 29 31 33 37 29 23 11 5 7 12 12 24 23 21 19 19 19 18 17 15 16 15 17 17 15 17 16 17 16 14 14 12 10 9 8 5
37 35 36 33 32 38 37 30 23 16 5 13 19 17 22 21 20 19 20 19 18 16 17 17 17 16 16 17 16 16 12 12 13 12 11 8 6 2
38 38 40 40 35 34 36 37 29 25 13 8 17 22 20 23 22 21 21 20 18 18 18 17 16 15 14 14 13 13 13 11 15 14 12 10 8 8
35 37 39 36 38 35 36 37 35 32 22 11 19 21 22 25 23 23 23 22 19 19 18 17 15 14 14 12 12 11 13 12 13 16 13 12 10 8
37 39 40 36 38 35 34 33 36 35 30 19 15 22 25 26 27 26 25 22 21 21 18 15 14 15 15 14 12 13 13 12 12 12 14 15 11 10
37 39 38 37 38 37 36 35 35 33 31 23 16 20 23 25 31 27 26 26 23 21 19 17 17 16 16 15 15 13 11 11 12 13 12 10 15 14
35 34 36 36 37 35 35 35 35 29 24 24 16 15 19 17 29 28 24 25 20 21 20 20 18 18 16 14 13 13 11 10 10 12 12 12 14 19
27 30 35 38 34 34 37 37 39 33 29 27 25 21 27 27 28 30 23 15 7 23 21 19 18 18 16 14 14 12 10 9 8 8 10 10 13 18
24 28 31 33 35 36 34 34 37 38 39 39 32 32 30 41 39 29 31 25 13 14 20 10 15 16 15 13 13 12 12 11 11 11 10 10 12 15
20 22 23 23 27 27 32 34 37 41 42 42 40 39 38 36 41 41 39 28 15 12 14 7 12 13 14 13 14 16 16 14 12 11 11 11 12 13
8 13 19 24 28 27 30 34 37 40 41 42 44 44 42 41 39 34 26 24 8 12 20 12 12 12 15 16 16 16 18 16 15 13 12 11 11 12
9 7 6 8 14 13 26 29 31 32 38 39 41 40 39 36 36 41 39 30 12 6 21 21 17 13 5 14 14 13 14 16 15 14 11 11 11 12
16 18 18 17 15 14 15 24 27 29 32 34 31 31 36 40 41 37 32 33 26 8 15 25 17 15 5 5 11 12 12 13 15 15 14 13 13 13
19 19 20 19 19 19 19 21 22 27 22 28 29 29 29 33 38 38 33 28 25 17 16 26 7 14 10 6 5 12 12 12 13 14 15 17 17 17
19 21 22 21 20 19 19 19 21 24 24 24 25 28 39 38 38 32 29 29 25 19 19 23 16 17 13 7 6 9 9 11 13 12 12 13 15 17
20 20 19 21 20 20 20 19 20 24 27 27 24 24 25 29 33 39 33 30 25 22 21 21 21 19 17 14 12 9 9 6 12 12 13 13 14 16
20 16 16 17 18 19 22 22 21 25 25 26 22 24 27 31 32 35 31 32 18 19 19 18 18 17 15 13 13 15 14 13 12 9 8 10 14 16
19 18 18 18 18 19 20 22 22 26 27 25 24 25 24 28 25 25 28 29 23 23 21 21 20 12 8 11 17 13 13 12 11 11 11 10 13 16
18 19 19 21 21 21 21 21 23 24 29 29 26 25 24 24 22 26 23 21 20 24 23 23 21 12 5 5 6 16 12 11 11 10 10 10 6 6
17 18 19 21 22 23 23 23 24 24 25 27 26 28 30 28 23 20 21 23 19 17 20 24 24 24 12 7 7 7 15 13 13 9 7 7 7 8
21 22 23 24 24 24 25 24 25 26 25 24 25 26 29 29 27 26 27 25 22 20 21 21 24 19 14 10 7 6 11 15 13 11 7 6 3 3
20 23 26 28 29 29 28 26 26 26 25 25 24 27 28 30 28 29 29 29 27 25 19 17 22 19 20 14 7 8 10 13 13 11 10 8 4 3
21 23 26 28 29 30 29 27 26 26 25 25 26 25 26 27 28 29 30 28 27 26 25 21 21 22 18 15 12 9 10 11 11 9 8 8 10 12
Wind_Direction
208 213 218 220 221 220 221 211 186 179 218 216 200 217 219 220 220 216 215 224 227 235 248 255 263 275 278 276 268 270 267 263 256 259 268 283 303 320
209 213 215 225 225 222 224 225 225 216 232 206 212 211 212 217 218 221 220 225 234 244 256 262 269 274 276 282 273 266 259 263 255 254 259 265 273 260
206 212 216 222 230 222 223 227 229 225 215 205 215 218 213 214 215 219 218 224 234 246 255 263 270 276 278 270 273 263 262 268 259 249 253 250 253 230
205 210 215 216 226 224 222 222 224 222 210 188 204 199 206 213 220 222 222 226 237 248 253 256 267 272 270 262 265 263 257 258 260 250 250 244 235 211
206 213 217 215 220 221 217 217 220 224 218 208 188 202 207 208 209 217 225 231 236 241 245 252 256 259 261 258 253 253 247 246 251 249 233 223 224 226
209 214 217 214 221 218 217 218 222 219 218 211 199 195 204 213 213 213 220 227 233 242 247 252 258 253 249 252 255 256 243 246 246 240 244 236 229 224
207 212 220 221 223 224 218 216 218 211 207 206 202 194 193 196 206 217 216 224 226 235 246 247 250 242 241 243 247 243 233 241 244 238 239 237 229 222
202 212 223 228 235 237 239 236 241 214 207 208 209 209 208 207 209 214 204 194 218 226 232 245 237 237 239 240 243 240 224 220 223 223 234 238 231 216
217 225 236 240 244 244 247 248 252 249 234 223 215 216 215 219 217 204 208 202 201 198 198 213 221 228 229 224 225 218 218 216 215 215 211 206 204 201
229 235 244 254 254 250 251 250 247 242 241 236 232 232 229 231 229 224 212 199 209 202 196 217 214 215 213 212 215 211 211 212 211 210 210 209 208 210
228 239 250 256 259 259 250 245 247 249 251 249 249 242 238 241 228 210 189 176 177 197 203 207 203 197 205 208 210 211 211 212 211 208 208 220 219 218
16 4 336 318 292 285 256 247 237 239 245 239 231 230 228 222 214 209 194 175 166 184 210 195 186 182 191 213 207 207 205 208 208 207 210 214 218 224
11 3 356 351 338 322 286 269 262 252 248 233 221 208 201 195 193 197 195 198 183 189 203 190 191 187 178 161 190 194 191 197 202 210 209 212 216 223
14 3 353 346 337 330 319 300 282 270 245 221 207 193 190 188 194 189 186 198 203 208 204 193 183 185 178 164 170 191 199 197 198 198 205 212 216 220
355 345 343 343 339 331 324 311 290 268 236 207 205 205 202 200 192 178 179 189 191 192 186 194 199 197 191 184 172 184 180 207 211 204 203 211 213 219
344 335 330 326 325 325 325 315 283 259 240 227 219 212 203 188 178 178 176 181 174 168 181 191 200 202 199 200 199 197 206 205 213 213 214 220 220 220
345 344 341 337 330 325 321 317 280 257 243 239 227 211 196 190 185 184 179 176 172 166 173 187 193 197 203 207 204 212 211 214 216 207 221 234 235 234
3 357 345 340 330 322 315 307 293 263 252 245 228 214 202 195 189 187 184 181 173 168 173 180 179 169 198 226 218 204 201 207 206 213 224 233 247 239
5 350 338 330 325 322 317 306 291 277 272 248 238 224 212 209 190 186 188 176 174 170 173 184 176 166 166 190 192 214 205 202 198 200 218 218 243 224
355 341 331 324 316 310 310 308 302 288 270 249 242 223 212 201 189 191 189 179 182 165 162 187 185 186 185 176 163 197 201 175 169 175 189 221 246 248
346 339 331 322 315 307 302 299 297 291 274 256 241 226 213 204 199 199 195 183 169 173 178 190 195 198 186 160 130 151 182 197 196 179 189 206 226 236
341 335 330 323 316 308 303 298 292 289 278 262 245 232 222 211 207 195 191 177 178 179 184 182 192 185 185 187 176 162 167 186 203 204 201 212 194 205
334 333 332 329 321 314 306 299 292 289 280 263 254 240 224 212 207 195 187 178 170 165 166 160 177 186 190 192 181 169 171 173 172 186 224 231 241 231
Height
780 784 790 795 797 800 802 803 806 815 816 816 818 819 822 825 827 828 830 830 831 832 834 833 832 832 831 832 833 831 832 831 831 830 830 828 828 826
771 777 781 787 793 794 796 798 800 804 807 809 812 813 816 820 822 824 826 827 828 828 829 829 829 827 826 826 826 826 825 828 828 828 829 828 827 828
761 768 771 779 786 786 790 792 795 798 801 804 806 809 813 815 817 819 821 822 823 822 823 823 823 823 823 822 821 822 823 824 825 825 826 826 825 825
753 761 764 769 776 779 780 784 787 791 794 797 801 804 807 810 813 814 815 816 818 819 818 818 818 819 818 818 817 817 818 819 820 820 820 823 822 823
745 752 753 759 765 771 771 775 779 783 786 788 793 797 801 803 806 807 809 810 811 812 811 813 812 813 814 815 813 812 812 813 815 816 817 819 820 822
740 742 746 751 756 761 762 765 771 775 778 782 785 788 791 796 798 799 801 801 803 807 808 807 807 808 809 809 809 807 807 808 810 809 811 815 817 819
730 734 739 744 749 754 754 756 761 766 770 774 778 781 782 786 786 789 792 794 796 799 802 801 801 804 804 803 804 804 803 804 806 808 809 811 813 814
722 728 733 739 742 746 750 752 753 756 759 763 766 768 769 772 776 780 785 787 792 787 793 794 796 799 798 799 801 804 802 802 803 803 806 808 810 812
722 724 728 732 736 739 740 744 746 747 750 749 753 753 758 755 760 769 774 776 777 779 783 789 792 792 793 792 794 798 800 800 800 800 800 803 805 808
718 723 725 727 730 732 735 736 738 739 741 742 742 742 746 747 750 755 758 766 776 778 779 787 785 786 786 787 790 791 793 795 795 797 798 800 802 805
716 719 721 723 724 726 728 729 728 727 731 732 733 734 734 738 741 747 755 760 767 769 773 779 778 780 781 780 783 785 787 789 790 790 793 800 801 802
718 718 719 719 721 721 722 720 717 718 719 720 722 722 722 726 729 735 735 746 757 764 764 771 769 773 777 777 780 782 783 786 787 788 791 792 796 801
719 717 716 716 716 717 716 716 713 713 711 713 715 713 714 713 718 724 729 740 743 751 757 764 765 767 770 774 776 777 778 780 782 786 785 789 794 796
718 718 717 715 714 713 711 711 710 709 707 706 708 709 712 710 712 713 718 732 739 744 754 759 761 764 768 770 771 774 777 777 778 777 778 782 788 792
718 717 715 713 712 710 708 707 707 705 702 703 702 702 701 705 708 712 719 727 732 738 744 750 755 761 765 767 767 771 774 774 777 774 774 779 782 786
719 715 713 712 710 708 705 703 703 703 701 699 698 697 700 699 703 703 712 721 727 732 738 743 748 752 758 759 763 769 772 774 774 772 773 776 779 781
716 714 713 712 710 707 704 703 701 698 696 696 697 697 695 697 698 703 705 714 718 725 733 741 746 749 752 756 759 760 766 768 770 771 771 775 778 779
716 716 713 711 709 707 704 702 698 695 694 693 692 691 693 693 695 698 701 703 710 717 726 734 740 745 750 752 756 759 759 761 763 766 769 772 772 774
719 717 714 711 708 704 701 698 694 691 688 686 686 686 688 692 690 692 697 700 705 713 717 727 733 738 747 748 753 750 753 753 759 764 766 768 770 769
722 719 715 712 708 701 697 693 689 686 682 679 681 679 680 681 685 691 695 695 705 708 711 725 725 729 737 738 744 748 751 751 754 761 764 766 767 767
722 718 714 708 704 699 694 689 684 679 676 674 672 673 672 673 675 679 687 690 694 703 709 718 720 726 732 737 740 744 745 752 756 754 760 764 764 766
722 718 712 706 701 695 688 682 677 672 669 667 665 664 664 666 667 671 678 681 686 695 705 712 718 723 728 733 737 742 744 749 752 753 754 759 764 765
723 717 711 704 698 690 683 676 671 665 662 659 658 658 658 660 663 664 669 672 679 688 699 707 714 721 725 731 734 739 745 749 746 749 752 755 760 763